sat.trackr.live / text

‹ back to catalog

STARLINK-3547

NORAD 51889 · 2022-022AP

PAYLOAD ACTIVE UNKNOWN

§ Identity

Operator
Country
US
Launch date
2022-03-03
Launch site
AFETR
Launch vehicle
Mass (kg)
RCS (m²)

Purposes: comms

External: N2YO · Heavens-Above · Gunter

§ Orbital elements

Epoch: 2026-09-20T04:38:33.839808Z

Period
93.85 min
Inclination
53.1595°
Eccentricity
0.0001362
Mean motion
15.34384546 rev/d
Perigee alt
461.8 km
Apogee alt
463.7 km
Semi-major
6,840.9 km
B*
2.4424e-5
RAAN
189.4927°
Arg perigee
94.4575°
Mean anomaly
265.6583°
Rev number
25,283

§ Raw data

STARLINK-35471 51889U 22022AP  26263.19344722  .00000449  00000+0  24424-4 0  99962 51889  53.1595 189.4927 0001362  94.4575 265.6583 15.34384546252835

JSON: /api/v1/satellites/51889 · /tle

For live sub-satellite position, see the globe view (requires WebGL).

§ Visibility from observer

Set your observer location to see the next 7 days of passes ≥ 10°. The values pass through the URL so the page stays shareable.

No JS? Fill the form by hand. The geolocation button needs JavaScript.